Meteopurmerend
purmerend
Purmerend - Baaienwijk



My webcam  My webcam


Onweer radar Meer informatie blitzortung!


Regen radar Meer informatie rain snow radar


Bezoek onze andere website:

CandyAppleRed WebdesignWebdesign Purmerend Candy Apple Red

MeteopurmerendBlog

Template documentation
and downloads



Het weer levert geen direct gevaar op.    Er zijn geen waarschuwingen afgegeven.

15 daagse weersverwachting 0.000N 0.000E

  • Overzicht
  • Per uur
  • 15 dagen
  • Extra
  • Vergelijk
  • Kaarten
  • Dagkaart
  • Meer »
  • Info
  • Statistieken
  • Directe link
    Temp 6h Neerslag Wind  
 02:00     19:09    Daglengte: 17:09 Vandaag
06:00
19°
5.3 mm
4
12:00
22°
26.8 mm
4
18:00
20°
3.9 mm
5
 02:02     19:07    Daglengte: 17:05 Morgen
00:00
18°
 
4
06:00
19°
 
5
12:00
21°
 
6
18:00
20°
 
5
 02:04     19:04    Daglengte: 17:00 Vrijdag 30 Jul
00:00
16°
25.2 mm
5
06:00
17°
44.9 mm
5
warningclass
12:00
18°
 
5
18:00
17°
 
0
 02:07     19:02    Daglengte: 16:55 Zaterdag 31 Jul
00:00
14°
 
3
Locatie info
Region:
Latitude: 60.4202°N
Longitude: 23.2372°E
0 masl
Temp/Neerslag /Baro Onweer/Dauwpunt
    Temp Baro 1h Neerslag Dauwpunt Wind UV Bewolking  
 02:00     19:09    Daglengte: 17:09 Vandaag
04:00
19°
1008.1 hPa
73%
16.2°
3
Windvlaag: 3.1 m/s
86%
05:00
19°
1007.4 hPa 1.8 mm
82%
16.2°
3
Windvlaag: 2.1 m/s
86%
06:00
19°
1007.0 hPa 3.5 mm
82%
17.3°
4
Windvlaag: 1.2 m/s
86%
07:00
19°
1006.7 hPa 4.8 mm
82%
18.5°
5
Windvlaag: 1.9 m/s
86%
08:00
20°
1006.3 hPa 5.3 mm
82%
18.8°
4
Windvlaag: 2.7 m/s
86% warningclass
09:00
20°
1005.9 hPa 4.8 mm
82%
19.3°
4
Windvlaag: 2.1 m/s
86% warningclass
10:00
21°
1005.6 hPa 3.7 mm
82%
19.8°
4
Windvlaag: 2.3 m/s
77%
11:00
21°
1005.0 hPa 4.4 mm
82%
19.8°
4
Windvlaag: 5 m/s
22%
12:00
22°
1004.6 hPa 3.8 mm
82%
19.9°
4
Windvlaag: 6.7 m/s
56%
13:00
21°
1004.0 hPa 3.9 mm
78%
19.8°
4
Windvlaag: 7 m/s
60% warningclass
14:00
21°
1003.7 hPa
72%
19.6°
4
Windvlaag: 6.8 m/s
25%
15:00
21°
1003.5 hPa
27%
19.4°
4
Windvlaag: 7.6 m/s
42%
16:00
21°
1003.7 hPa
21%
19.0°
5
Windvlaag: 8.7 m/s
69%
17:00
21°
1003.5 hPa
21%
18.3°
5
Windvlaag: 8.4 m/s
43%
18:00
20°
1003.6 hPa
27%
17.4°
5
Windvlaag: 8.6 m/s
39%
19:00
19°
1003.6 hPa
17%
17.0°
4
Windvlaag: 8.3 m/s
46%
20:00
19°
1003.5 hPa
22%
17.3°
4
Windvlaag: 7.5 m/s
53%
21:00
19°
1003.3 hPa
29%
17.8°
4
Windvlaag: 7.3 m/s
57%
22:00
19°
1002.9 hPa
30%
17.6°
4
Windvlaag: 7.4 m/s
36%
23:00
18°
1002.4 hPa
75%
18.1°
4
Windvlaag: 7.2 m/s
57%
 02:02     19:07    Daglengte: 17:05 Morgen
00:00
18°
1002.0 hPa
75%
18.1°
4
Windvlaag: 7.9 m/s
62%
01:00
18°
1001.5 hPa
66%
17.9°
4
Windvlaag: 7.4 m/s
62%
02:00
18°
1001.2 hPa
69%
18.0°
4
Windvlaag: 7.4 m/s
61%
03:00
18°
1001.0 hPa
68%
18.1°
4
Windvlaag: 7.3 m/s
82%
04:00
19°
1000.7 hPa
31%
18.2°
4
Windvlaag: 7.5 m/s
79%
05:00
19°
1000.4 hPa
73%
17.9°
5
Windvlaag: 7.8 m/s
63%
06:00
19°
1000.2 hPa
82%
18.3°
5
Windvlaag: 8 m/s
86%
07:00
20°
1000.0 hPa
81%
18.5°
5
Windvlaag: 8.2 m/s
69%
08:00
21°
999.8 hPa
79%
18.1°
5
Windvlaag: 7.9 m/s
69%
09:00
21°
999.7 hPa
73%
17.5°
6
Windvlaag: 7.7 m/s
36%
10:00
20°
999.7 hPa
70%
18.9°
6
Windvlaag: 7.5 m/s
41%
11:00
20°
999.6 hPa
72%
18.3°
6
Windvlaag: 7.5 m/s
59%
12:00
21°
999.3 hPa
74%
17.2°
6
Windvlaag: 7.6 m/s
22%
13:00
22°
999.2 hPa
79%
14.7°
6
Windvlaag: 7.5 m/s
23%
14:00
22°
999.0 hPa
75%
14.4°
6
Windvlaag: 7.5 m/s
24%
15:00
21°
998.8 hPa
21%
14.7°
6
Windvlaag: 7.4 m/s
27%
16:00
21°
998.4 hPa
14%
14.6°
6
Windvlaag: 6.8 m/s
7%
17:00
20°
998.1 hPa
14%
14.7°
5
Windvlaag: 9.7 m/s
7%
18:00
20°
997.8 hPa
14%
14.7°
5
Windvlaag: 9.2 m/s
8%
19:00
19°
997.6 hPa
61%
15.8°
4
Windvlaag: 9 m/s
14%
20:00
18°
997.4 hPa
14%
16.3°
4
Windvlaag: 10.1 m/s
11%
21:00
17°
996.3 hPa 8.5 mm
21%
15.5°
4
Windvlaag: 8.6 m/s
23%
22:00
17°
996.0 hPa
21%
14.3°
5
Windvlaag: 8.5 m/s
33%
23:00
17°
995.8 hPa 8.5 mm
24%
14.3°
5
Windvlaag: 9 m/s
55%
 02:04     19:04    Daglengte: 17:00 Vrijdag 30 Jul
00:00
16°
995.6 hPa 8.2 mm
26%
14.0°
5
Windvlaag: 8.4 m/s
40%
01:00
16°
995.3 hPa
24%
12.6°
4
Windvlaag: 8.2 m/s
49%
02:00
15°
994.9 hPa 8.2 mm
21%
12.9°
3
Windvlaag: 6.6 m/s
29%
03:00
16°
994.7 hPa 8.5 mm
23%
12.5°
4
Windvlaag: 7.7 m/s
70%
04:00
16°
994.1 hPa 9.1 mm
28%
13.5°
4
Windvlaag: 7.4 m/s
37%
05:00
16°
993.8 hPa 9.4 mm
87%
15.4°
4
Windvlaag: 8.9 m/s
66% warningclass
06:00
17°
993.4 hPa 9.7 mm
86%
14.0°
5
Windvlaag: 10 m/s
75% warningclass
07:00
17°
992.5 hPa
29%
15.1°
5
Windvlaag: 9.9 m/s
20%
08:00
18°
992.1 hPa
35%
13.7°
5
Windvlaag: 11.1 m/s
12%
09:00
18°
992.0 hPa
87%
16.4°
5
Windvlaag: 11.7 m/s
20%
10:00
19°
991.8 hPa
98%
14.5°
6
Windvlaag: 14 m/s
60%
11:00
19°
991.3 hPa
100%
15.6°
5
Windvlaag: 12.2 m/s
63%
12:00
18°
991.0 hPa
100%
14.2°
5
Windvlaag: 12.3 m/s
52%
13:00
18°
990.4 hPa
100%
16.8°
4
Windvlaag: 11.1 m/s
20%
14:00
18°
990.0 hPa
45%
17.0°
4
Windvlaag: 13.9 m/s
48%
15:00
18°
989.8 hPa
82%
16.0°
3
Windvlaag: 11.9 m/s
20%
16:00
18°
989.4 hPa
24%
17.1°
3
Windvlaag: 13.7 m/s
20%
17:00
18°
988.9 hPa
22%
16.6°
2
Windvlaag: 10.8 m/s
20%
18:00
17°
988.8 hPa
21%
16.9°
0
Windvlaag: 6.1 m/s
54%
19:00
16°
988.9 hPa
21%
15.9°
1
Windvlaag: 8.4 m/s
36%
20:00
15°
989.5 hPa
21%
14.6°
2
Windvlaag: 11.1 m/s
19%
21:00
15°
990.1 hPa
21%
14.4°
3
Windvlaag: 12.6 m/s
16%
22:00
14°
990.9 hPa
21%
13.5°
3
Windvlaag: 13 m/s
17%
23:00
14°
991.4 hPa
21%
13.2°
3
Windvlaag: 11.3 m/s
15%
Temp/Neerslag /Baro Onweer/Dauwpunt
    Temp Baro Neerslag Dauwpunt Wind Bewolking  
 02:00     19:09    Daglengte: 17:09 Vandaag
06:00
19°
1007.0 hPa 5.3 mm 17.3°
4
86%
09:00
20°
1005.9 hPa 14.8 mm 19.3°
4
86% warningclass
12:00
22°
1004.6 hPa 12.0 mm 19.9°
4
56%
15:00
21°
1003.5 hPa 3.9 mm 19.4°
4
42%
18:00
20°
1003.6 hPa   17.4°
5
39%
21:00
19°
1003.3 hPa   17.8°
4
57%
 02:02     19:07    Daglengte: 17:05 Morgen
00:00
18°
1002.0 hPa   18.1°
4
62%
03:00
18°
1001.0 hPa   18.1°
4
82%
06:00
19°
1000.2 hPa   18.3°
5
86%
09:00
21°
999.7 hPa   17.5°
6
36%
12:00
21°
999.3 hPa   17.2°
6
22%
15:00
21°
998.8 hPa   14.7°
6
27%
18:00
20°
997.8 hPa   14.7°
5
8%
21:00
17°
996.3 hPa 8.5 mm 15.5°
4
23%
 02:04     19:04    Daglengte: 17:00 Vrijdag 30 Jul
00:00
16°
995.6 hPa 16.7 mm 14.0°
5
40%
03:00
16°
994.7 hPa 16.7 mm 12.5°
4
70%
06:00
17°
993.4 hPa 28.2 mm 14.0°
5
75% warningclass
09:00
18°
992.0 hPa   16.4°
5
20%
12:00
18°
991.0 hPa   14.2°
5
52%
15:00
18°
989.8 hPa   16.0°
3
20%
18:00
17°
988.8 hPa   16.9°
0
54%
21:00
15°
990.1 hPa   14.4°
3
16%
 02:07     19:02    Daglengte: 16:55 Zaterdag 31 Jul
00:00
14°
991.9 hPa   12.7°
3
13%
03:00
13°
992.5 hPa 30.2 mm 12.5°
4
0%
06:00
17°
994.9 hPa 30.2 mm 14.2°
4
0%
09:00
20°
996.1 hPa 30.3 mm 11.9°
4
0%
12:00
20°
998.0 hPa 30.3 mm 12.7°
5
1%
15:00
19°
998.7 hPa 30.4 mm 11.9°
4
1%
18:00
16°
999.4 hPa 30.4 mm 13.0°
2
1%
21:00
14°
999.0 hPa 30.4 mm 13.4°
1
0%
 02:09     18:59    Daglengte: 16:50 Zondag 01 Aug
00:00
14°
997.9 hPa 30.4 mm 13.6°
2
0%
03:00
14°
996.2 hPa 31.3 mm 14.1°
2
1%
06:00
16°
995.4 hPa 36.1 mm 15.0°
3
1%
09:00
15°
995.2 hPa 41.5 mm 14.6°
1
1%
12:00
17°
996.2 hPa 41.7 mm 14.4°
2
1%
15:00
21°
996.7 hPa 41.7 mm 13.2°
4
1%
18:00
17°
997.8 hPa 42.1 mm 15.0°
3
1%
21:00
14°
998.6 hPa 43.3 mm 14.0°
2
0%
 02:12     18:57    Daglengte: 16:45 Maandag 02 Aug
00:00
13°
998.8 hPa 43.6 mm 12.9°
1
0%
03:00
13°
999.7 hPa 43.7 mm 12.4°
1
1%
06:00
17°
999.8 hPa 43.7 mm 14.7°
2
1%
09:00
20°
1000.7 hPa 44.3 mm 12.6°
4
1%
12:00
21°
1000.7 hPa 44.5 mm 9.2°
5
1%
15:00
18°
1001.4 hPa 45.1 mm 14.3°
3
1%
18:00
14°
1002.9 hPa 45.8 mm 13.1°
3
0%
21:00
11°
1004.2 hPa 45.8 mm 10.1°
2
0%
 02:14     18:54    Daglengte: 16:40 Dinsdag 03 Aug
00:00
10°
Voelt als: 8.8°
1005.8 hPa 45.8 mm 9.3°
2
0%
03:00
10°
Voelt als: 8.5°
1007.0 hPa 45.8 mm 8.6°
2
0%
06:00
15°
1008.1 hPa 45.8 mm 9.8°
2
0%
09:00
19°
1008.7 hPa 45.8 mm 6.8°
2
0%
12:00
17°
1009.7 hPa 45.8 mm 10.1°
3
1%
15:00
19°
1010.0 hPa 45.8 mm 8.4°
3
1%
18:00
15°
1010.7 hPa 45.8 mm 9.1°
1
1%
21:00
11°
1012.0 hPa 45.8 mm 7.5°
1
1%
 02:16     18:51    Daglengte: 16:35 Woensdag 04 Aug
00:00
10°
Voelt als: 9.7°
1012.3 hPa 45.8 mm 6.7°
1
1%
03:00
10°
Voelt als: 9.3°
1012.2 hPa   6.7°
2
1%
06:00
15°
1012.3 hPa 91.6 mm 8.0°
2
1%
12:00
19°
1011.7 hPa 93.2 mm 13.8°
3
1%
18:00
16°
1011.8 hPa 97.3 mm 13.5°
2
0%
 02:19     18:49    Daglengte: 16:30 Donderdag 05 Aug
00:00
13°
1012.9 hPa 97.7 mm 11.9°
2
0%
06:00
18°
1013.0 hPa 97.7 mm 13.7°
2
1%
12:00
21°
1012.0 hPa 98.0 mm 11.4°
4
1%
18:00
17°
1009.7 hPa 98.2 mm 12.6°
3
1%
 02:21     18:46    Daglengte: 16:25 Vrijdag 06 Aug
00:00
17°
1007.3 hPa 98.2 mm 12.8°
3
1%
06:00
20°
1005.7 hPa 98.6 mm 13.5°
4
1%
12:00
24°
1005.4 hPa 98.9 mm 15.4°
4
1%
18:00
21°
1004.2 hPa 99.9 mm 16.8°
3
1%
 02:24     18:43    Daglengte: 16:19 Zaterdag 07 Aug
00:00
15°
1009.6 hPa 0.7 mm 12.7°
2
68%
06:00
18°
1008.6 hPa 0.8 mm 13.9°
3
67%
12:00
21°
1007.9 hPa 2.3 mm 14.2°
3
75%
18:00
18°
1007.5 hPa 2.0 mm 14.2°
2
72%
 02:26     18:41    Daglengte: 16:15 Zondag 08 Aug
00:00
15°
1007.5 hPa 0.6 mm 13.7°
2
65%
06:00
18°
1007.2 hPa 0.5 mm 14.5°
2
71%
12:00
21°
1007.9 hPa 0.8 mm 13.9°
3
77%
18:00
18°
1008.5 hPa 0.7 mm 14.1°
2
61%
 02:29     18:38    Daglengte: 16:09 Maandag 09 Aug
00:00
15°
1009.5 hPa 0.5 mm 13.6°
1
67%
06:00
18°
1010.1 hPa 0.4 mm 14.2°
2
64%
12:00
21°
1011.0 hPa 0.9 mm 13.8°
2
68%
18:00
17°
1011.2 hPa 0.6 mm 14.0°
1
67%
 02:31     18:35    Daglengte: 16:04 Dinsdag 10 Aug
00:00
15°
1011.7 hPa 0.3 mm 12.9°
0
66%
06:00
18°
1011.7 hPa 0.4 mm 13.9°
1
75%
12:00
21°
1012.1 hPa   13.7°
1
69%
18:00
18°
1012.0 hPa 0.3 mm 14.1°
1
63%
 02:33     18:32    Daglengte: 15:59 Woensdag 11 Aug
00:00
15°
1012.5 hPa 0.4 mm 13.3°
0
49%
06:00
18°
1012.5 hPa 0.6 mm 14.1°
0
55%
12:00
22°
1012.5 hPa 0.7 mm 13.3°
1
53%
18:00
18°
1012.1 hPa 0.7 mm 13.7°
1
55%
 02:36     18:29    Daglengte: 15:53 Donderdag 12 Aug
00:00
15°
1012.0 hPa 0.5 mm 12.6°
0
62%
  CAPE Lifted Index Hail Supercell Tornado SRH 3km CL BTM PRES CL TOP PRES Swiss DWD icon SMHI TS
 02:00     19:09    Daglengte: 17:09 Vandaag
04:00 4 J/kg 0.0 K 0 % 0 % 0 % 0 m²/s² 0 0 0.39 61
05:00 50 J/kg 0.6 K 0 % 0 % 0 % 0 m²/s² 0 0 0.63 61
06:00 10 J/kg 0.2 K 0 % 0 % 0 % 0 m²/s² 0 0 0.2 61
07:00 0 J/kg -0.7 K 0 % 0 % 0 % 0 m²/s² 0 0 -0.61 80
08:00 0 J/kg -1.3 K 0 % 0 % 0 % 0 m²/s² 0 0 -0.34 95
09:00 489 J/kg -2.0 K 0 % 0 % 0 % 0 m²/s² 0 0 -0.5 95
10:00 1219 J/kg -3.4 K 0 % 0 % 0 % 0 m²/s² 0 0 -0.61 80
11:00 1222 J/kg -3.3 K 0 % 0 % 0 % 0 m²/s² 0 0 -0.27 80
12:00 886 J/kg -2.6 K 0 % 0 % 0 % 0 m²/s² 0 0 -0.92 3
13:00 1124 J/kg -3.4 K 0 % 0 % 0 % 0 m²/s² 0 0 -2.29 80
14:00 909 J/kg -2.9 K 0 % 0 % 0 % 0 m²/s² 0 0 -1.28 3
15:00 732 J/kg -2.4 K 0 % 0 % 0 % 0 m²/s² 0 0 0.54 3
16:00 425 J/kg -1.5 K 0 % 0 % 0 % 0 m²/s² 0 0 1.53 3
17:00 327 J/kg -1.4 K 0 % 0 % 0 % 0 m²/s² 0 0 2.35 3
18:00 350 J/kg -1.5 K 0 % 0 % 0 % 0 m²/s² 0 0 1.89 3
19:00 396 J/kg -1.1 K 0 % 0 % 0 % 0 m²/s² 0 0 2.35 3
20:00 191 J/kg -0.5 K 0 % 0 % 0 % 0 m²/s² 0 0 3.16 2
21:00 248 J/kg -0.4 K 0 % 0 % 0 % 0 m²/s² 0 0 2.87 2
22:00 259 J/kg -0.4 K 0 % 0 % 0 % 0 m²/s² 0 0 3.05 2
23:00 239 J/kg -0.9 K 0 % 0 % 0 % 0 m²/s² 0 0 2.55 3
 02:02     19:07    Daglengte: 17:05 Morgen
00:00 343 J/kg -1.0 K 0 % 0 % 0 % 0 m²/s² 0 0 1.76 80
01:00 393 J/kg -0.9 K 0 % 0 % 0 % 0 m²/s² 0 0 1.14 2
02:00 424 J/kg -0.8 K 0 % 0 % 0 % 0 m²/s² 0 0 0.82 2
03:00 676 J/kg -1.5 K 0 % 0 % 0 % 0 m²/s² 0 0 -0.45 3
04:00 977 J/kg -2.8 K 0 % 0 % 0 % 0 m²/s² 0 0 -2.23 3
05:00 724 J/kg -1.9 K 0 % 0 % 0 % 0 m²/s² 0 0 -1.81 80
06:00 179 J/kg -0.2 K 0 % 0 % 0 % 0 m²/s² 0 0 -0.11 80
07:00 103 J/kg -0.4 K 0 % 0 % 0 % 0 m²/s² 0 0 -0.19 3
08:00 939 J/kg -3.1 K 0 % 0 % 0 % 0 m²/s² 0 0 -3.07 3
09:00 688 J/kg -3.3 K 0 % 0 % 0 % 0 m²/s² 0 0 -2.76 3
10:00 844 J/kg -3.7 K 0 % 0 % 0 % 0 m²/s² 0 0 -3.22 3
11:00 566 J/kg -2.4 K 0 % 0 % 0 % 0 m²/s² 0 0 -1.26 3
12:00 187 J/kg -0.6 K 0 % 0 % 0 % 0 m²/s² 0 0 1.35 3
13:00 209 J/kg -0.6 K 0 % 0 % 0 % 0 m²/s² 0 0 1.83 3
14:00 425 J/kg -1.5 K 0 % 0 % 0 % 0 m²/s² 0 0 1.23 2
15:00 407 J/kg -1.0 K 0 % 0 % 0 % 0 m²/s² 0 0 2.3 2
16:00 347 J/kg -0.7 K 0 % 0 % 0 % 0 m²/s² 0 0 2.96 1
17:00 336 J/kg -0.6 K 0 % 0 % 0 % 0 m²/s² 0 0 4.02 1
18:00 218 J/kg -0.1 K 0 % 0 % 0 % 0 m²/s² 0 0 4.91 2
19:00 367 J/kg -0.7 K 0 % 0 % 0 % 0 m²/s² 0 0 3.17 2
20:00 347 J/kg -0.5 K 0 % 0 % 0 % 0 m²/s² 0 0 3.55 1
21:00 195 J/kg 1.4 K 0 % 0 % 0 % 0 m²/s² 0 0 6.11 2
22:00 229 J/kg 1.5 K 0 % 0 % 0 % 0 m²/s² 0 0 5.61 2
23:00 294 J/kg 2.2 K 0 % 0 % 0 % 0 m²/s² 0 0 5.68 2
 02:04     19:04    Daglengte: 17:00 Vrijdag 30 Jul
00:00 271 J/kg 2.5 K 0 % 0 % 0 % 0 m²/s² 0 0 3.97 2
01:00 205 J/kg 1.8 K 0 % 0 % 0 % 0 m²/s² 0 0 4.02 2
02:00 74 J/kg 1.5 K 0 % 0 % 0 % 0 m²/s² 0 0 3.84 2
03:00 236 J/kg -0.9 K 0 % 0 % 0 % 0 m²/s² 0 0 -0.27 2
04:00 188 J/kg -1.4 K 0 % 0 % 0 % 0 m²/s² 0 0 -1.16 3
05:00 590 J/kg -2.9 K 0 % 0 % 0 % 0 m²/s² 0 0 -2.03 3
06:00 910 J/kg -4.2 K 0 % 0 % 0 % 0 m²/s² 0 0 -3.33 2
07:00 691 J/kg -3.7 K 0 % 0 % 0 % 0 m²/s² 0 0 -3.4 3
08:00 651 J/kg -2.7 K 0 % 0 % 0 % 0 m²/s² 0 0 -0.3 2
09:00 766 J/kg -3.6 K 0 % 0 % 0 % 0 m²/s² 0 0 -2.34 2
10:00 985 J/kg -4.3 K 0 % 0 % 0 % 0 m²/s² 0 0 -2.89 3
11:00 654 J/kg -3.2 K 0 % 0 % 0 % 0 m²/s² 0 0 -2.39 2
12:00 729 J/kg -3.1 K 0 % 0 % 0 % 0 m²/s² 0 0 -2.23 3
13:00 603 J/kg -2.5 K 0 % 0 % 0 % 0 m²/s² 0 0 -2.5 2
14:00 517 J/kg -1.9 K 0 % 0 % 0 % 0 m²/s² 0 0 -1.66 3
15:00 28 J/kg -0.4 K 0 % 0 % 0 % 0 m²/s² 0 0 -0.31 2
16:00 145 J/kg -0.7 K 0 % 0 % 0 % 0 m²/s² 0 0 -0.7 2
17:00 321 J/kg -0.8 K 0 % 0 % 0 % 0 m²/s² 0 0 -0.47 1
18:00 108 J/kg 0.0 K 0 % 0 % 0 % 0 m²/s² 0 0 0.12 3
19:00 196 J/kg -1.3 K 0 % 0 % 0 % 0 m²/s² 0 0 -0.37 2
20:00 0 J/kg -0.6 K 0 % 0 % 0 % 0 m²/s² 0 0 1.08 1
21:00 0 J/kg 0.6 K 0 % 0 % 0 % 0 m²/s² 0 0 5.52 2
22:00 0 J/kg 0.9 K 0 % 0 % 0 % 0 m²/s² 0 0 5.43 1
23:00 116 J/kg 0.7 K 0 % 0 % 0 % 0 m²/s² 0 0 4.48 2
Temp Baro Wind Neerslag
  EWN Forecast EWN WRFDA DWD ICON FMI HIRLAM MET Norway GFS
 02:00     19:09    Daglengte: 17:09 Vandaag
06:00 19.3° 1007.0 hPa 4.2 m/s 5.3 mm 18.6° 1006.9 hPa 5.2 m/s 18.5 mm 19.1° 1006.9 hPa 4.6 m/s 1.9 mm 20.8° 1007.0 hPa 3.4 m/s 0.0 mm 19.3° 1008.2 hPa 3.6 m/s
09:00 20.1° 1005.9 hPa 3.9 m/s 14.8 mm 19.6° 1005.3 hPa 4.9 m/s 46.8 mm 20.2° 1005.3 hPa 4.7 m/s 2.5 mm 20.9° 1006.1 hPa 3.5 m/s 0.0 mm 18.0° 1007.1 hPa 4.3 m/s
12:00 21.5° 1004.6 hPa 4.1 m/s 12.0 mm 23.2° 1004.3 hPa 6.2 m/s 51.3 mm 21.6° 1004.3 hPa 5.1 m/s 1.5 mm 21.5° 1005.3 hPa 3.0 m/s 0.0 mm 18.2° 1005.7 hPa 4.2 m/s
15:00 20.9° 1003.5 hPa 4.5 m/s 3.9 mm 22.0° 1003.9 hPa 6.1 m/s 52.1 mm 21.9° 1003.0 hPa 6.0 m/s 0.3 mm 20.7° 1004.9 hPa 3.1 m/s 0.0 mm 19.7° 1004.1 hPa 2.4 m/s
18:00 19.8° 1003.6 hPa 4.7 m/s 0.0 mm 20.1° 1003.2 hPa 3.9 m/s 52.7 mm 19.8° 1002.6 hPa 5.1 m/s 0.0 mm 20.3° 1004.5 hPa 3.0 m/s 0.0 mm 19.2° 1003.3 hPa 4.1 m/s
21:00 18.8° 1003.3 hPa 3.9 m/s 0.0 mm 18.7° 1003.2 hPa 4.7 m/s 53.0 mm 18.8° 1001.8 hPa 4.5 m/s 0.0 mm 18.4° 1004.2 hPa 2.3 m/s 0.0 mm 17.7° 1003.3 hPa 2.7 m/s
 02:02     19:07    Daglengte: 17:05 Morgen
00:00 18.3° 1002.0 hPa 4.2 m/s 0.0 mm 18.5° 1002.1 hPa 3.7 m/s 53.5 mm 18.3° 1000.7 hPa 4.6 m/s 0.3 mm 17.6° 1003.2 hPa 2.1 m/s 0.0 mm 17.6° 1002.0 hPa 3.0 m/s
03:00 18.3° 1001.0 hPa 3.8 m/s 0.0 mm 18.7° 1000.7 hPa 2.1 m/s 54.4 mm 18.4° 999.3 hPa 4.1 m/s 0.1 mm 18.2° 1002.1 hPa 2.3 m/s 0.0 mm 17.4° 1000.8 hPa 3.1 m/s
06:00 19.4° 1000.2 hPa 5.1 m/s 0.0 mm 18.4° 1000.4 hPa 5.9 m/s 60.2 mm 18.8° 998.1 hPa 5.3 m/s 0.5 mm 19.9° 1001.0 hPa 3.2 m/s 0.0 mm 19.9° 1000.1 hPa 4.9 m/s
09:00 21.2° 999.7 hPa 6.0 m/s 0.0 mm 19.6° 999.7 hPa 3.6 m/s 68.1 mm 20.4° 997.5 hPa 7.0 m/s 0.4 mm 21.9° 1000.2 hPa 3.6 m/s 0.0 mm 21.0° 1000.7 hPa 5.3 m/s
12:00 20.8° 999.3 hPa 6.4 m/s 0.0 mm 23.1° 999.2 hPa 6.8 m/s 72.7 mm 19.9° 996.6 hPa 7.5 m/s 0.2 mm 20.5° 1000.1 hPa 4.4 m/s 0.0 mm 22.7° 1000.5 hPa 5.9 m/s
15:00 21.4° 998.8 hPa 6.4 m/s 0.0 mm 22.0° 998.7 hPa 6.7 m/s 73.2 mm 21.1° 996.1 hPa 7.5 m/s 0.1 mm 21.9° 999.5 hPa 4.8 m/s 0.0 mm 22.3° 999.8 hPa 5.9 m/s
18:00 19.5° 997.8 hPa 5.3 m/s 0.0 mm 19.8° 997.5 hPa 4.9 m/s 73.2 mm 19.4° 995.7 hPa 6.2 m/s 0.0 mm 20.0° 999.0 hPa 3.0 m/s 0.0 mm 19.0° 998.9 hPa 4.5 m/s
21:00 17.3° 996.3 hPa 4.5 m/s 8.5 mm 17.1° 996.4 hPa 3.8 m/s 73.2 mm 17.7° 995.2 hPa 4.7 m/s 0.0 mm 16.9° 997.9 hPa 3.9 m/s
 02:04     19:04    Daglengte: 17:00 Vrijdag 30 Jul
00:00 16.4° 995.6 hPa 4.6 m/s 16.7 mm 15.8° 995.7 hPa 3.7 m/s 73.2 mm 16.4° 994.3 hPa 4.5 m/s 0.0 mm 14.9° 997.0 hPa 4.2 m/s
03:00 15.5° 994.7 hPa 3.7 m/s 16.7 mm 15.8° 995.0 hPa 5.3 m/s 73.5 mm 15.4° 993.4 hPa 3.0 m/s 0.0 mm 14.0° 996.2 hPa 3.2 m/s
06:00 16.8° 993.4 hPa 4.6 m/s 28.2 mm 17.1° 994.0 hPa 6.6 m/s 82.0 mm 16.5° 992.5 hPa 4.3 m/s 0.0 mm 16.3° 994.0 hPa 5.9 m/s
09:00 18.4° 992.0 hPa 4.7 m/s 0.0 mm 15.9° 993.3 hPa 4.8 m/s 92.2 mm 19.0° 991.6 hPa 4.7 m/s 0.0 mm 15.5° 994.2 hPa 5.7 m/s
12:00 18.5° 991.0 hPa 4.7 m/s 0.0 mm 17.5° 992.1 hPa 6.4 m/s 105.3 mm 18.7° 990.7 hPa 4.3 m/s 0.1 mm 15.2° 993.3 hPa 5.5 m/s
15:00 17.6° 989.8 hPa 3.4 m/s 0.0 mm 14.5° 989.5 hPa 4.3 m/s 140.6 mm 18.4° 989.9 hPa 3.2 m/s 0.1 mm 15.9° 991.3 hPa 6.9 m/s
18:00 17.0° 988.8 hPa 0.5 m/s 0.0 mm 15.5° 983.8 hPa 0.7 m/s 187.8 mm 17.4° 990.1 hPa 0.4 m/s 0.0 mm 15.0° 988.2 hPa 4.2 m/s
21:00 14.8° 990.1 hPa 2.6 m/s 0.0 mm 13.3° 984.2 hPa 5.6 m/s 248.3 mm 15.2° 991.6 hPa 1.9 m/s 0.0 mm 14.5° 989.0 hPa 4.3 m/s
 02:07     19:02    Daglengte: 16:55 Zaterdag 31 Jul
00:00 14.0° 991.9 hPa 3.2 m/s 0.0 mm 13.6° 987.5 hPa 5.1 m/s 248.5 mm 14.1° 993.1 hPa 2.8 m/s 0.0 mm 13.4° 990.7 hPa 3.7 m/s
03:00 13.0° 992.5 hPa 3.7 m/s 30.2 mm 13.0° 992.5 hPa 3.7 m/s 30.2 mm
06:00 16.7° 994.9 hPa 4.0 m/s 30.2 mm 16.7° 994.9 hPa 4.0 m/s 30.2 mm
09:00 20.3° 996.1 hPa 4.4 m/s 30.3 mm 20.3° 996.1 hPa 4.4 m/s 30.3 mm
12:00 19.6° 998.0 hPa 4.6 m/s 30.3 mm 19.6° 998.0 hPa 4.6 m/s 30.3 mm
15:00 19.5° 998.7 hPa 3.8 m/s 30.4 mm 19.5° 998.7 hPa 3.8 m/s 30.4 mm
18:00 16.5° 999.4 hPa 1.9 m/s 30.4 mm 16.5° 999.4 hPa 1.9 m/s 30.4 mm
21:00 13.9° 999.0 hPa 1.5 m/s 30.4 mm 13.9° 999.0 hPa 1.5 m/s 30.4 mm
 02:09     18:59    Daglengte: 16:50 Zondag 01 Aug
00:00 13.9° 997.9 hPa 1.8 m/s 30.4 mm 13.9° 997.9 hPa 1.8 m/s 30.4 mm
03:00 14.4° 996.2 hPa 1.7 m/s 31.3 mm 14.4° 996.2 hPa 1.7 m/s 31.3 mm
06:00 16.0° 995.4 hPa 2.7 m/s 36.1 mm 16.0° 995.4 hPa 2.7 m/s 36.1 mm
09:00 15.4° 995.2 hPa 1.3 m/s 41.5 mm 15.4° 995.2 hPa 1.3 m/s 41.5 mm
12:00 16.7° 996.2 hPa 2.2 m/s 41.7 mm 16.7° 996.2 hPa 2.2 m/s 41.7 mm
15:00 20.6° 996.7 hPa 4.4 m/s 41.7 mm 20.6° 996.7 hPa 4.4 m/s 41.7 mm
18:00 17.2° 997.8 hPa 3.3 m/s 42.1 mm 17.2° 997.8 hPa 3.3 m/s 42.1 mm
21:00 14.3° 998.6 hPa 2.0 m/s 43.3 mm 14.3° 998.6 hPa 2.0 m/s 43.3 mm
 02:12     18:57    Daglengte: 16:45 Maandag 02 Aug
00:00 13.2° 998.8 hPa 0.8 m/s 43.6 mm 13.2° 998.8 hPa 0.8 m/s 43.7 mm
03:00 12.9° 999.7 hPa 1.1 m/s 43.7 mm 12.9° 999.7 hPa 1.1 m/s 43.7 mm
06:00 17.1° 999.8 hPa 2.5 m/s 43.7 mm 17.1° 999.8 hPa 2.5 m/s 43.7 mm
09:00 19.5° 1000.7 hPa 4.0 m/s 44.3 mm 19.5° 1000.7 hPa 4.0 m/s 44.3 mm
12:00 20.9° 1000.7 hPa 5.0 m/s 44.5 mm 20.9° 1000.7 hPa 5.0 m/s 44.5 mm
15:00 18.0° 1001.4 hPa 3.2 m/s 45.1 mm 18.0° 1001.4 hPa 3.2 m/s 45.1 mm
18:00 14.2° 1002.9 hPa 3.3 m/s 45.8 mm 14.2° 1002.9 hPa 3.3 m/s 45.8 mm
21:00 10.9° 1004.2 hPa 2.2 m/s 45.8 mm 10.9° 1004.2 hPa 2.2 m/s 45.8 mm
 02:14     18:54    Daglengte: 16:40 Dinsdag 03 Aug
00:00 9.7° 1005.8 hPa 2.1 m/s 45.8 mm 9.7° 1005.8 hPa 2.1 m/s 45.8 mm
03:00 9.5° 1007.0 hPa 2.2 m/s 45.8 mm 9.5° 1007.0 hPa 2.2 m/s 45.8 mm
06:00 15.0° 1008.1 hPa 1.9 m/s 45.8 mm 15.0° 1008.1 hPa 1.9 m/s 45.8 mm
09:00 19.4° 1008.7 hPa 2.4 m/s 45.8 mm 19.4° 1008.7 hPa 2.4 m/s 45.8 mm
12:00 17.4° 1009.7 hPa 3.3 m/s 45.8 mm 17.4° 1009.7 hPa 3.3 m/s 45.8 mm
15:00 18.7° 1010.0 hPa 2.6 m/s 45.8 mm 18.7° 1010.0 hPa 2.6 m/s 45.8 mm
18:00 14.7° 1010.7 hPa 1.5 m/s 45.8 mm 14.7° 1010.7 hPa 1.5 m/s 45.8 mm
21:00 10.8° 1012.0 hPa 1.3 m/s 45.8 mm 10.8° 1012.0 hPa 1.3 m/s 45.8 mm
 02:16     18:51    Daglengte: 16:35 Woensdag 04 Aug
00:00 9.8° 1012.3 hPa 1.3 m/s 45.8 mm 9.8° 1012.3 hPa 1.3 m/s 45.8 mm
03:00 10.0° 1012.2 hPa 1.8 m/s 45.8 mm 10.0° 1012.2 hPa 1.8 m/s 45.8 mm
06:00 14.9° 1012.3 hPa 2.1 m/s 45.8 mm 14.9° 1012.3 hPa 2.1 m/s 45.8 mm
12:00 19.3° 1011.7 hPa 2.6 m/s 47.3 mm 19.3° 1011.7 hPa 2.6 m/s 47.3 mm
18:00 15.9° 1011.8 hPa 1.9 m/s 48.8 mm 15.9° 1011.8 hPa 1.9 m/s 48.8 mm
 02:19     18:49    Daglengte: 16:30 Donderdag 05 Aug
00:00 12.6° 1012.9 hPa 1.7 m/s 48.8 mm 12.6° 1012.9 hPa 1.7 m/s 48.8 mm
06:00 17.5° 1013.0 hPa 2.1 m/s 48.8 mm 17.5° 1013.0 hPa 2.1 m/s 48.8 mm
12:00 21.0° 1012.0 hPa 3.7 m/s 49.1 mm 21.0° 1012.0 hPa 3.7 m/s 49.1 mm
18:00 17.4° 1009.7 hPa 3.0 m/s 49.1 mm 17.4° 1009.7 hPa 3.0 m/s 49.1 mm
 02:21     18:46    Daglengte: 16:25 Vrijdag 06 Aug
00:00 16.8° 1007.3 hPa 3.4 m/s 49.1 mm 16.8° 1007.3 hPa 3.4 m/s 49.1 mm
06:00 19.7° 1005.7 hPa 4.3 m/s 49.3 mm 19.7° 1005.7 hPa 4.3 m/s 49.3 mm
12:00 24.1° 1005.4 hPa 4.4 m/s 49.6 mm 24.1° 1005.4 hPa 4.4 m/s 49.6 mm
18:00 20.5° 1004.2 hPa 2.9 m/s 50.1 mm 20.5° 1004.2 hPa 2.9 m/s 50.1 mm
 02:24     18:43    Daglengte: 16:19 Zaterdag 07 Aug
00:00 14.7° 1009.6 hPa 1.8 m/s 0.7 mm
06:00 17.9° 1008.6 hPa 2.9 m/s 0.8 mm
12:00 20.7° 1007.9 hPa 3.2 m/s 2.3 mm
18:00 17.6° 1007.5 hPa 2.3 m/s 2.0 mm
 02:26     18:41    Daglengte: 16:15 Zondag 08 Aug
00:00 15.3° 1007.5 hPa 2.1 m/s 0.6 mm
06:00 17.8° 1007.2 hPa 2.1 m/s 0.5 mm
12:00 21.1° 1007.9 hPa 2.6 m/s 0.8 mm
18:00 17.7° 1008.5 hPa 1.8 m/s 0.7 mm
 02:29     18:38    Daglengte: 16:09 Maandag 09 Aug
00:00 15.1° 1009.5 hPa 1.2 m/s 0.5 mm
06:00 17.9° 1010.1 hPa 1.6 m/s 0.4 mm
12:00 21.3° 1011.0 hPa 2.4 m/s 0.9 mm
18:00 17.4° 1011.2 hPa 1.1 m/s 0.6 mm
 02:31     18:35    Daglengte: 16:04 Dinsdag 10 Aug
00:00 14.7° 1011.7 hPa 0.5 m/s 0.3 mm
06:00 17.6° 1011.7 hPa 0.8 m/s 0.4 mm
12:00 21.2° 1012.1 hPa 1.1 m/s 0.0 mm
18:00 17.7° 1012.0 hPa 0.9 m/s 0.3 mm
 02:33     18:32    Daglengte: 15:59 Woensdag 11 Aug
00:00 14.9° 1012.5 hPa 0.5 m/s 0.4 mm
06:00 17.6° 1012.5 hPa 0.3 m/s 0.6 mm
12:00 21.8° 1012.5 hPa 1.1 m/s 0.7 mm
18:00 17.5° 1012.1 hPa 0.7 m/s 0.7 mm
 02:36     18:29    Daglengte: 15:53 Donderdag 12 Aug
00:00 14.5° 1012.0 hPa 0.2 m/s 0.5 mm
FMI Hirlam - 7.5 km EWN WRFDA - 12 km DWD ICON - 7 km GFS - 25 km Basiskaart






























































Updatetijd (Europe/Amsterdam) Resolutie Lengte Stap
FMI Hirlam 01:45, 07:45, 13:45, 19:45 7.5 km 49h 1h
EWN WRFDA 22:30, 04:30, 10:30, 16:30 12 km 73h 1h
DWD ICON 00:00, 06:00, 12:00, 18:00 7 km 75h 1h
GFS 02:15, 08:15, 14:15, 20:15 25 km 237h 3h
30+ mm
25-30 mm
20-25 mm
15-20 mm
10-15 mm
6-10 mm
4-6 mm
2-4 mm
1-2 mm
0.5-1 mm
0.2-0.5 mm
0.1-0.2 mm
30+ mm
25-30 mm
20-25 mm
15-20 mm
10-15 mm
6-10 mm
4-6 mm
2-4 mm